Regional Weather Roundup
Issued by NWS Charleston, SC

Current Version | Previous Version | Text Only | Print | Product List | Glossary Off
Versions: 1 2 3 4 5 6 7 8 9 10 11 12 13 14 15 16 17 18 19 20 21 22 23 24 25 26 27 28 29 30 31 32 33 34 35 36 37 38 39 40 41 42 43 44 45 46 47 48 49 50

000
ASUS42 KCHS 301326
RWRCHS
REGIONAL WEATHER ROUNDUP
NATIONAL WEATHER SERVICE CHARLESTON SC
800 AM EST FRI JAN 30 2015

NOTE: "FAIR" INDICATES FEW OR NO CLOUDS BELOW 12,000 FEET WITH NO
SIGNIFICANT WEATHER AND/OR OBSTRUCTIONS TO VISIBILITY.

NOT ALL STATIONS ARE QUALITY CONTROLLED BY THE NATIONAL
WEATHER SERVICE. USE DATA WITH CAUTION...ESPECIALLY
DEWPOINT OBSERVATIONS.

SCZ027-030-031-034>040-042>050-301400-
...SOUTHEAST SOUTH CAROLINA...

CITY           SKY/WX    TMP DP  RH WIND       PRES   REMARKS
N CHARLESTON   PTCLDY    53  43  68 NW12      30.06R
WATERFRONT PRK   N/A     52 N/A N/A W7G15       N/A
MOUNT PLEASANT FAIR      54  45  71 NW10      30.05R
PINOPOLIS        N/A     54  43  66 W14       29.97R
MONCKS CORNER  FAIR      54  43  66 CALM      30.06R
SUMMERVILLE    FAIR      52  43  71 W10       30.09R
BEAUFORT MCAS  MOCLDY    53  45  74 W10       30.09R
BEAUFORT ARPT  FAIR      54  46  76 W9        30.09R
HILTON HEAD IS CLEAR     54  46  76 W8G16     30.10R
WALTERBORO     SUNNY     52  37  58 NW12G17   30.11R
ALLENDALE      FAIR      50  39  66 NW8G16    30.13R

...SOUTHERN MIDLANDS AND PEE DEE...

CITY           SKY/WX    TMP DP  RH WIND       PRES   REMARKS
GEORGETOWN     NOT AVBL
KINGSTREE      NOT AVBL
ORANGEBURG     CLEAR     49  36  61 NW12      30.10R
BARNWELL       FAIR      48  37  66 NW12      30.14R
AIKEN          FAIR      43  36  75 W8        30.17R
MANNING        FAIR      52  32  46 NW13      30.08R
COLUMBIA       PTCLDY    47  30  51 NW8       30.12R
SUMTER         CLEAR     46  32  57 NW12      30.08R
FLORENCE       PTCLDY    48  33  56 NW12      30.06R
MYRTLE BEACH   PTCLDY    50  43  76 W12       30.02
N MYRTLE BEACH MOCLDY    50  44  80 VRB6      30.01R

$$

GAZ063-065-086>088-099>101-113>116-118-119-134>141-150-301400-
...SOUTHEAST GEORGIA...

CITY           SKY/WX    TMP DP  RH WIND       PRES   REMARKS
SAVANNAH ARPT  CLOUDY    53  45  74 W9        30.11R
HUNTER AAF     MOCLDY    53  47  80 W13       30.09R
FORT STEWART   PTCLDY    52  47  82 W8        30.10S
STATESBORO     PTCLDY    49  39  68 NW14G21   30.15R
SYLVANIA       MOSUNNY   49  43  79 NW13G23   30.15R
CLAXTON        FAIR      50  43  76 W18G24    30.16R

...CSRA...CENTRAL AND FAR SOUTHEAST GEORGIA...

CITY           SKY/WX    TMP DP  RH WIND       PRES   REMARKS
THOMSON        CLEAR     44  34  67 NW12      30.22R
AUGUSTA-BUSH   CLEAR     46  32  58 NW20      30.15R
AUGUSTA-DANIEL CLEAR     46  32  58 NW13      30.15R
SWAINSBORO     FAIR      46  28  49 NW12      30.19R
VIDALIA        PTCLDY    48  41  76 N15G24    30.18R
EASTMAN        FAIR      46  36  67 NW8G18    30.24R
HAZLEHURST     CLOUDY    53  44  74 NW13G24   30.18R
ALMA           PTCLDY    52  48  86 NW8       30.15R
WAYCROSS       PTCLDY    56  54  91 NW8       30.16R
JESUP          FAIR      55  52  88 NW6       30.14R
BAXLEY         MOCLDY    54  48  82 NW14G20   30.15R
BRUNSWICK      MOCLDY    54  50  87 W6        30.14R
SAINT SIMONS   MOCLDY    52  49  89 W7        30.13R

$$

SCZ027-028-034-036>038-045-046-048>050-GAZ119-141-301400-
...LAKE AND SUPPLEMENTAL COASTAL OBSERVATIONS...

STATION/POSITION TIME  TEMP    WIND        PRES    WAVE   SWELL
                       AIR SEA DIR/SP/G            HT/PER HT/PER/DIR
                 (UTC) (F)     (DEG/KT/KT) (MB)    (FT/S) (FT/S/D)
UPR LAKE MARION  NOT AVBL
WINYAH BAY       NOT AVBL
LAKE MURRAY      1200   45     310/  4/  8 1018.6R
ACE BASIN NERRS  NOT AVBL
FORT PULASKI     1300   54 52  290/ 15/ 17 1019.5R
SAPELO ISLAND    NOT AVBL

$$

ANZ835-935-AMZ111-154-330-350-352-354-370-450-454-472-301400-
...C-MAN AND BUOY OBSERVATIONS...

STATION/POSITION TIME  TEMP    WIND        PRES    WAVE   SWELL
                       AIR SEA DIR/SP/G            HT/PER HT/PER/DIR
                 (UTC) (F)     (DEG/KT/KT) (MB)    (FT/S) (FT/S/D)
BUOY 41004       1250   58 68  270/ 23/ 29 1016.5R   5/ 6   2/10
BUOY 41008       1250   53 53  270/ 16/ 17 1019.2R   3/10   2/ 70/10
FOLLY BEACH CMAN 1300   51     270/  6/ 10 1018.0R
CAPERS NEARSHORE NOT AVBL
FRIPP NEARSHORE  NOT AVBL


STATION/POSITION TIME  TEMP    WIND        PRES    WAVE   SWELL
                       AIR SEA DIR/SP/G            HT/PER HT/PER/DIR
                 (UTC) (F)     (DEG/KT/KT) (MB)    (FT/S) (FT/S/D)
5E ST. MARYS GA  1221      56                N/A     3/11   2/ 80/11
FRYING PAN BUOY  1250   55 65  280/ 23/ 29 1015.8R   7/ 7
BUOY 41025       1250   56 69  290/ 23/ 29 1012.7F   7/ 7   2/ 50/10
CAPE LOOKOUT NC  1300   50     290/ 16/ 20 1014.3R
BUOY 41002       1250   67 72  230/ 23/ 29 1016.6F   5/ 5   2/ 30/11
BUOY 41010       1220   69 74  280/ 16/ 21 1021.0F
ST AUGUSTINE FL  1300   52     240/  8/  9 1021.7R


$$


USA.gov is the U.S. government's official web portal to all federal, state and local government web resources and services.